Location: Wallasey
(53.4265°N, 3.0662°W)
Time: 02:25:11
(UTC+01:00)

NOAA 18 - Pass Details

Date: 21 September 2019
Orbit: 841 x 861 km, 99.1° (Epoch: 16 October)

Event Time Altitude Azimuth Distance (km) Brightness Sun altitude
Exits shadow 19:42:57 - 117° (ESE) 3,010 7.5 -5.1°
Reaches altitude 10° 19:44:29 10° 110° (ESE) 2,496 7.0 -5.3°
Maximum altitude 19:49:00 27° 55° (NE) 1,620 6.3 -6.0°
Drops below altitude 10° 19:53:33 10° 0° (N) 2,513 7.8 -6.7°
Sets 19:56:16 0° 349° (N) 3,455 8.7 -7.1°
